www.pogodaiklimat.ru

Погода и климат >> Архив погоды >> Хорватия >> Split-Marjan


ПОГОДА в Split-Marjan

  • Прогноз погоды в Split-Marjan
  • Монитор погоды в Split-Marjan
  • Климат города

АРХИВ ПОГОДЫ в Split-Marjan

Время (UTC), дата Ветер
(напр.,м/с)
 
Видим.   Явления Облачность Т
(С)
Тd
(С)
f
(%)
Тe
(С)
Тes
(С)
Комфортность P
(гПа)
Po
(гПа)
Тmin
(С)
Tmax
(С)
R
(мм)
R24
(мм)
S
(см)
05 14.04 СВ 4 40 км 5/0
[Ci sp]
+13.5 +4.3 54 +12 +12 1018.5 1003.2
04 14.04 В 4 30 км 1/0
[Ci fib]
+13.6 +4.7 55 +12 +12 1018.4 1003.1
06 14.04 СВ 4 40 км 4/0
[Ci sp]
+14.2 +3.5 49 +13 +15 1018.4 1003.1 +13.0
07 14.04 СВ 2 40 км 6/0
[Ac trans Ci sp]
+15.3 +5.0 50 +15 +19 1018.7 1003.4
08 14.04 СВ 2 40 км 5/0
[Ac trans Ci sp]
+17.2 +4.4 43 +18 +25 1018.6 1003.4
09 14.04 ЮЗ 2 40 км 4/0
[Ac trans Ci sp]
+19.2 +6.5 44 +20 +31 1018.3 1003.3
11 14.04 ЮЗ 4 40 км 6/0
[Ac trans Ci sp]
+19.8 +8.0 46 +21 +30 комфорт 1018.4 1003.4
10 14.04 ЮЗ 2 40 км 8/0
[Ac trans Ci sp]
+19.8 +8.4 48 +21 +33 комфорт 1018.2 1003.2
12 14.04 ЮЗ 4 40 км 6/0
[Ac trans Ci sp]
+20.6 +9.0 47 +22 +30 комфорт 1018.4 1003.4
13 14.04 С 2 40 км 5/0
[Ci sp]
+20.6 +6.0 39 +22 +33 комфорт 1017.6 1002.6
14 14.04 ЮЗ 3 40 км 8/0
[Cs]
+21.0 +6.1 38 +22 +28 комфорт 1016.6 1001.7
15 14.04 ЮЗ 1 40 км 8/0
[Ac trans Cs]
+21.0 +6.1 38 +23 +27 комфорт 1016.1 1001.2
18 14.04 З 1 25 км 9/0
[Ac trans Ci sp]
+19.1 +7.7 48 +21 +21 комфорт 1016.0 1001.0 +21.1
20 14.04 ЮЗ 1 20 км 8/0
[As trans Cs]
+18.2 +6.5 46 +19 +19 1015.2 1000.2
19 14.04 штиль 0 20 км 9/0
[As trans Cs]
+19.0 +3.9 37 +19 +19 1015.8 1000.8
21 14.04 ЮЗ 2 20 км 10/0
[As trans Cs]
+17.2 +8.6 57 +18 +18 1015.1 1000.0
00 15.04 Ю 1 20 км 9/0
[Ac trans Cs]
+16.0 +8.0 59 +17 +17 1014.9 999.8
03 15.04 ЮВ 3 20 км 9/0
[Ac trans Cs]
+16.6 +6.3 51 +16 +16 1012.7 997.6
04 15.04 С 4 25 км 10/3 1500 м
[Sc Ac As]
+16.2 +6.0 51 +16 +16 1012.6 997.5
05 15.04 СВ 4 25 км 10/0
[Ac As]
+17.2 +5.7 47 +17 +17 1012.3 997.2
06 15.04 В 4 30 км 10/0
[Ac As]
+17.4 +6.9 50 +17 +18 1011.4 996.4 +14.7
08 15.04 С 3 30 км 10/0
[Ac As]
+20.1 +9.1 49 +22 +24 комфорт 1010.8 995.9
07 15.04 Ю 2 30 км 9/0
[Ac As]
+20.9 +7.9 43 +23 +25 комфорт 1010.0 995.2
09 15.04 ЮВ 3 30 км 10/0
[Ac As]
+22.2 +8.4 41 +23 +27 комфорт 1010.6 995.8
10 15.04 Ю 3 30 км 10/0
[Ac As]
+22.2 +9.7 45 +24 +28 комфорт 1010.5 995.7
11 15.04 С 2 30 км 10/0
[Ac As]
+22.4 +8.6 41 +24 +28 комфорт 1009.6 994.9
12 15.04 СВ 3 30 км 10/0
[Ac As]
+22.4 +8.9 42 +24 +27 комфорт 1008.4 993.7
14 15.04 ЮЗ 3 30 км 10/0
[Ac As]
+19.9 +10.5 55 +22 +24 комфорт 1009.3 994.4
13 15.04 ЮЗ 3 30 км 10/0
[Ac As]
+21.2 +10.7 51 +23 +26 комфорт 1008.8 994.0
15 15.04 В 2 30 км 10/0
[Ac As]
+19.4 +10.3 56 +21 +23 комфорт 1007.8 992.9
18 15.04 С 2 30 км 8/0
[Ac As]
+19.1 +9.5 54 +20 +20 1007.4 992.5 +23.0
19 15.04 СВ 4 20 км 9/0
[Ac As]
+19.1 +9.3 53 +20 +20 1007.6 992.7
20 15.04 З 3 20 км 10/3 1000 м
[Sc Ac As]
+19.2 +9.0 52 +20 +20 1007.6 992.7
21 15.04 СВ 3 20 км 10/3 1230 м
[Sc Ac As]
+18.2 +10.4 60 +19 +19 1007.7 992.8
00 16.04 В 5 20 км 10/4 1230 м
[Sc Ac As]
+19.7 +8.6 49 +21 +21 комфорт 1007.8 992.9
03 16.04 ЮВ 10
{17}
20 км 10/3 1230 м
[Sc Ac As]
+20.0 +9.0 49 +20 +20 1006.5 991.7
05 16.04 ЮВ 16
{22}
16 км 8/3 1000 м
[Sc Ac As]
+19.0 +10.6 58 +18 +18 1006.1 991.2
04 16.04 ЮВ 14
{18}
20 км 10/3 1000 м
[Sc Ac As]
+20.0 +9.8 52 +20 +20 1006.1 991.3
06 16.04 Ю 11-19
{22}
6000 м дымка 9/3 1230 м
[Cu Sc Ac As]
+18.0 +13.0 73 +17 +17 1008.1 993.2 +17.7
07 16.04 ЮВ 9
{20}
7000 м дымка 9/4 1000 м
[Cu Sc Ac As]
+18.7 +13.3 71 +19 +19 1009.4 994.5
08 16.04 Ю 13
{18}
6000 м дымка 9/4 600 м
[Cu Sc As op Ci sp]
+18.5 +13.4 72 +18 +18 1009.3 994.4
09 16.04 ЮВ 10-17
{20}
7000 м дымка 8/4 800 м
[Cu Sc As trans Ci sp]
+19.6 +14.1 71 +20 +21 1009.9 995.0
11 16.04 ЮЗ 4 8000 м дымка 8/8 600 м
[Cu Sc]
+20.2 +14.3 69 +23 +25 комфорт 1010.9 996.1
10 16.04 Ю 7 7000 м дымка 8/8 600 м
[Cu Sc]
+20.3 +13.8 66 +22 +23 комфорт 1010.2 995.4
12 16.04 ЮЗ 5 8000 м дымка 8/8 800 м
[Cu Sc]
+19.9 +14.3 70 +22 +23 комфорт 1011.2 996.3
13 16.04 ЮВ 6 7000 м дымка 4/3 600 м
[Cu med, cong Ci sp]
+21.0 +13.2 61 +23 +27 комфорт 1010.8 996.0
14 16.04 ЮВ 9 8000 м дымка 3/1 600 м
[Cu med, cong Ci sp]
+20.2 +11.9 59 +21 +22 комфорт 1010.2 995.4
15 16.04 ЮВ 10 9000 м дымка 3/1 800 м
[Cu med, cong Ci sp]
+19.4 +12.1 63 +20 +20 1010.3 995.4
18 16.04 ЮВ 6 10 км 1/1 1230 м
[Cu hum]
+17.5 +12.1 71 +17 +17 1011.9 996.9 +21.0
20 16.04 ЮВ 6 10 км 9/9 600 м
[Sc]
+17.3 +12.4 73 +16 +16 1013.6 998.6
19 16.04 ЮВ 6 15 км 3/3 1000 м
[Cu hum]
+17.4 +12.0 71 +17 +17 1012.8 997.8
21 16.04 ЮВ 6 10 км 10/8 800 м
[Sc Ac und]
+17.0 +12.8 76 +16 +16 1014.1 999.0
00 17.04 Ю 5 8000 м дымка 10/8 800 м
[Sc As op]
+16.8 +12.4 75 +16 +16 1015.1 1000.0
03 17.04 СВ 3 7000 м дымка 9/9 800 м
[Sc]
+16.4 +10.5 68 +16 +16 1015.7 1000.6
04 17.04 ЮВ 2 6000 м дымка 8/3 1000 м
[Sc As op]
+16.4 +10.5 68 +17 +17 1016.1 1001.0
05 17.04 СВ 2 7000 м дымка 8/8 1000 м
[Sc]
+16.1 +10.3 68 +16 +16 1016.7 1001.5
06 17.04 СВ 1 9000 м 8/8 1230 м
[Sc]
+16.4 +10.7 69 +17 +18 1017.3 1002.1 +15.6
08 17.04 Ю 2 6000 м 5/3 1000 м
[Sc Ac trans Ci sp]
+19.0 +11.0 60 +20 +26 1017.9 1002.9
07 17.04 Ю 1 4000 м 6/6 1000 м
[Sc]
+18.0 +11.5 66 +19 +22 1017.6 1002.5
09 17.04 ЮЗ 2 6000 м 4/1 1230 м
[Sc Ac trans Ci sp]
+19.1 +10.3 57 +21 +30 комфорт 1018.2 1003.2
10 17.04 ЮЗ 2 6000 м 5/3 1000 м
[Cu Sc Ac trans Ci sp]
+21.0 +12.4 58 +24 +33 комфорт 1018.4 1003.5
11 17.04 ЮЗ 5 7000 м 5/3 1000 м
[Cu Sc Ac trans Ci sp]
+21.4 +12.9 58 +24 +29 комфорт 1018.3 1003.4
12 17.04 ЮЗ 5 6000 м 8/4 1230 м
[Cu Sc Ac trans Ci sp]
+21.9 +13.3 58 +25 +28 комфорт 1018.5 1003.6
14 17.04 З 2 7000 м гроза, ливневой дождь 9/6 1000 м
[Cu Sc Ac trans Ci sp]
+21.1 +11.6 55 +23 +25 комфорт 1018.7 1003.8
13 17.04 З 3 6000 м 8/4 1000 м
[Cu Sc Ac trans Ci sp]
+21.8 +11.8 53 +24 +28 комфорт 1018.1 1003.2
15 17.04 С 3 6000 м гроза, ливневой дождь 10/8 800 м
[Cb cap As op]
+16.9 +12.0 73 +17 +17 1018.9 1003.8
18 17.04 С 4 18 км {гроза, дождь} 9/5 1230 м
[Sc As op]
+17.1 +12.0 72 +17 +17 1019.5 1004.4 +22.0 10
19 17.04 СВ 4 20 км 9/4 1000 м
[Sc Ac As]
+17.4 +10.0 62 +17 +17 1020.3 1005.2
20 17.04 СВ 4 20 км 9/6 1000 м
[Cu Sc Ac trans]
+18.0 +9.1 56 +18 +18 1021.2 1006.1
21 17.04 СВ 5 20 км 9/5 1230 м
[Cu Sc Ac As]
+18.0 +8.7 55 +18 +18 1021.1 1006.0
00 18.04 СВ 8 15 км слабый дождь 10/5 1230 м
[Sc As op]
+16.2 +11.0 71 +15 +15 1021.3 1006.1 0.3
03 18.04 СВ 10 20 км {дождь} 9/3 1230 м
[Cu Sc Ac As]
+18.2 +8.7 54 +17 +17 1020.7 1005.6
05 18.04 СВ 7 50 км слабый дождь 10/5 1000 м
[Cu Sc Ac As]
+17.8 +9.1 57 +17 +17 1021.9 1006.7
04 18.04 СВ 6 50 км 10/4 1000 м
[Cu Sc Ac As]
+18.2 +8.5 53 +18 +18 1021.2 1006.1
06 18.04 СВ 8 50 км в посл. час дождь 9/3 1500 м
[Sc Ac As]
+18.0 +9.3 57 +17 +17 1022.5 1007.3 +15.7 0.4
07 18.04 СВ 9 50 км 9/4 1500 м
[Sc Ac As]
+18.4 +9.6 56 +18 +18 1022.8 1007.7
08 18.04 СВ 8 50 км 10/4 1500 м
[Sc Ac As]
+18.8 +9.5 55 +19 +19 1023.3 1008.2
09 18.04 СВ 9 50 км слабый дождь 10/5 1500 м
[Sc Ac As]
+18.0 +9.9 59 +17 +17 1023.9 1008.7
11 18.04 СВ 6 50 км 9/4 1500 м
[Sc Ac As]
+20.0 +9.7 51 +21 +23 комфорт 1024.3 1009.2
10 18.04 СВ 9 50 км в посл. час дождь 10/4 1500 м
[Sc Ac As]
+19.0 +9.7 55 +19 +19 1023.9 1008.8
12 18.04 СВ 10
{18}
50 км {дождь} 9/3 1500 м
[Cu Sc Ac As]
+20.4 +9.4 49 +21 +21 комфорт 1023.5 1008.5 0.1
13 18.04 СВ 7 50 км 8/5 1500 м
[Cu Sc Ac As]
+21.0 +9.3 47 +22 +23 комфорт 1023.7 1008.7
14 18.04 ЮЗ 3 50 км 8/5 1500 м
[Cu Sc Ac trans]
+21.4 +10.9 51 +23 +26 комфорт 1023.6 1008.6
15 18.04 СВ 4 50 км 9/4 1500 м
[Cu Sc Ac As]
+21.4 +8.8 44 +23 +24 комфорт 1023.8 1008.8
18 18.04 СВ 8
{17}
30 км {дождь} 8/6 1500 м
[Cu Sc Ac trans]
+19.8 +7.5 45 +20 +20 1024.2 1009.1 +22.0 0.1
20 18.04 СВ 11
{18}
20 км 10/8 1500 м
[Cu Sc As op]
+19.2 +8.0 48 +19 +19 1024.7 1009.6
19 18.04 СВ 8 20 км 8/5 1500 м
[Cu Sc Ac trans]
+19.3 +7.5 46 +19 +19 1024.5 1009.4
21 18.04 СВ 10
{19}
20 км 8/6 1230 м
[Cu Sc As op]
+19.8 +6.5 42 +20 +20 1025.0 1009.9
00 19.04 СВ 7 20 км 3/0
[Ac trans Ci sp]
+19.1 +6.5 44 +19 +19 1024.6 1009.5
03 19.04 СВ 10
{17}
20 км 3/0
[Ac trans Ci sp]
+19.2 +5.9 42 +19 +19 1023.9 1008.8
04 19.04 СВ 8
{18}
30 км 3/0
[Ac trans Ci sp]
+19.3 +6.3 43 +19 +19 1023.9 1008.8
05 19.04 СВ 5 40 км 3/0
[Ac trans Ci sp]
+19.1 +8.4 50 +20 +20 1024.4 1009.3
06 19.04 СВ 1 40 км 1/0
[Ci sp]
+19.9 +8.3 47 +22 +25 комфорт 1024.9 1009.8 +18.4
08 19.04 Ю 2 35 км 1/1 1000 м
[Cu med, cong]
+21.9 +9.6 45 +23 +32 комфорт 1024.8 1009.8
07 19.04 Ю 1 35 км 1/0
[Ci fib]
+20.6 +9.2 48 +23 +30 комфорт 1024.9 1009.8
09 19.04 ЮЗ 2 30 км 1/1 1230 м
[Cu hum]
+22.7 +10.3 45 +25 +36 комфорт 1024.7 1009.8
10 19.04 ЮЗ 2 35 км 1/1 1000 м
[Cu hum]
+23.6 +10.6 44 +25 +39 комфорт 1024.3 1009.4
11 19.04 ЮЗ 5 35 км 3/3 1000 м
[Cu hum]
+24.4 +10.4 41 +25 +31 комфорт 1023.9 1009.1
12 19.04 З 4 35 км 3/3 1230 м
[Cu hum]
+24.8 +10.1 39 +26 +33 жарко 1023.6 1008.8
14 19.04 З 5 35 км 1/1 1000 м
[Cu hum]
+23.9 +9.7 41 +25 +29 комфорт 1022.9 1008.0
13 19.04 ЮЗ 5 35 км 3/3 1000 м
[Cu med, cong]
+24.0 +9.7 40 +25 +30 комфорт 1023.3 1008.4
15 19.04 ЮЗ 4 40 км 1/1 1230 м
[Cu hum Ci fib]
+22.8 +10.8 47 +25 +28 комфорт 1022.4 1007.5
18 19.04 СЗ 1 30 км 3/0
[Ci sp]
+21.6 +9.0 44 +23 +23 комфорт 1022.1 1007.1 +25.0
19 19.04 ЮВ 1 20 км 3/0
[Ci sp]
+21.0 +9.8 49 +24 +24 комфорт 1022.2 1007.2
20 19.04 СВ 6 20 км ясно +21.9 +4.8 33 +22 +22 комфорт 1022.1 1007.1
21 19.04 ЮВ 3 20 км ясно +20.9 +6.4 39 +22 +22 комфорт 1022.2 1007.2
00 20.04 СВ 6 20 км ясно +20.6 +4.9 36 +21 +21 комфорт 1021.8 1006.8
03 20.04 СВ 8 20 км ясно +20.0 +6.4 41 +20 +20 1020.6 1005.6
05 20.04 СВ 7 50 км 3/0
[Ci sp]
+19.4 +5.7 41 +19 +20 1020.8 1005.7
04 20.04 СВ 9 40 км 1/0
[Ci fib]
+19.8 +6.3 41 +20 +20 1020.6 1005.6
06 20.04 СВ 8 40 км 4/0
[Ci sp]
+19.7 +7.1 44 +20 +20 1020.6 1005.6 +19.0
07 20.04 СВ 6 30 км 5/0
[Ci sp]
+22.0 +7.5 39 +23 +25 комфорт 1020.7 1005.8
08 20.04 В 5 40 км 5/0
[Ci sp]
+23.0 +8.7 40 +24 +29 комфорт 1020.8 1005.9
09 20.04 ЮЗ 2 45 км 4/0
[Ci sp]
+23.5 +9.0 40 +24 +37 комфорт 1020.7 1005.8
11 20.04 З 4 45 км 4/1 1000 м
[Cu hum Ci sp]
+25.5 +9.6 37 +26 +36 жарко 1019.4 1004.7
10 20.04 З 4 45 км 5/0
[Ci sp]
+24.2 +8.1 36 +25 +34 комфорт 1020.1 1005.3
12 20.04 СЗ 2 50 км 4/1 1230 м
[Cu hum Ci fib]
+26.5 +8.9 33 +27 +40 жарко 1019.0 1004.3
13 20.04 С 2 50 км 4/1 1000 м
[Cu hum Ci fib]
+27.1 +7.4 29 +27 +37 жарко 1018.0 1003.4
14 20.04 В 2 45 км 3/0
[Ci fib]
+26.2 +9.4 35 +27 +35 жарко 1017.3 1002.6
15 20.04 СВ 6 40 км 3/0
[Ci fib]
+26.8 +4.7 24 +26 +28 жарко 1016.8 1002.2
18 20.04 СВ 10 40 км 3/0
[Ac lent Ci fib]
+24.0 +2.1 24 +23 +23 комфорт 1017.2 1002.4 +27.1
20 20.04 СВ 13-21
{22}
20 км ясно +21.5 +1.6 27 +21 +21 комфорт 1018.2 1003.3
19 20.04 В 9 20 км ясно +22.5 +1.8 26 +22 +22 комфорт 1018.2 1003.3
21 20.04 СВ 15 20 км ясно +20.6 +1.9 29 +20 +20 1017.9 1002.9
00 21.04 СВ 11-17
{18}
20 км ясно +19.6 -1.7 24 +19 +19 1018.8 1003.7
03 21.04 ЮЗ 3 20 км ясно +18.2 +4.0 39 +18 +18 1018.9 1003.8
04 21.04 Ю 2 40 км ясно +17.5 +2.4 36 +18 +18 1019.2 1004.0

 

Местоположение метеостанции Split-Marjan (Хорватия): широта 43.52 долгота 16.43 высота над уровнем моря 128 м.

В архиве по умолчанию представлена погода в Split-Marjan за последнюю неделю. Архивные данные за месяц целиком и за предыдущие месяцы, начиная с января 2011 года, Вы можете получить, выбрав интересующий диапазон дат из раскрывающегося списка и нажав кнопку "Ввод!".


*Определитесь, кто Вы:
робот инопланетянин человек

Внимание! Время в таблицах - всемирное. Для получения местного времени необходимо прибавить поправку, которая в Split-Marjan равна 1 ч.

Смотрите также архив погоды в соседних городах и на ближайших метеорологических станциях:

Погода в Split-Resnik (Хорватия) (11 км)
Погода в Hvar (Хорватия) (39 км)
Погода в Sibenik (Хорватия) (47 км)
Погода в Makarska (Хорватия) (55 км)
Погода в Livno (Босния и Герцеговина) (59 км)
Погода в Komiza (Хорватия) (59 км)
Погода в Lastovo (Хорватия) (92 км)
Погода в Ploce (Хорватия) (98 км)
Погода в Bugojno (Босния и Герцеговина) (104 км)
Погода в Zadar Zemunik (Хорватия) (108 км)

Пояснения к столбцам:

Ветер - указаны скорость ветра в м/с - средняя за 10 мин, порывы в срок и между сроками (в фигурных скобках) и направление, откуда дует ветер: С - северный, СВ - северо-восточный, В - восточный, ЮВ - юго-восточный, Ю - южный, ЮЗ - юго-западный, З - западный, СЗ - северо-западный.
Видимость - горизонтальная дальность видимости в метрах или километрах. При видимости от 1 до 10 км при отсутствии осадков обычно наблюдается дымка, при ухудшении видимости до 1 км и менее - туман. В сухую погоду видимость может ухудшаться дымом, пылью или мглою.
Явления - указаны атмосферные явления, наблюдавшиеся в срок или в последний час перед сроком; фигурными скобками обозначены явления, наблюдавшиеся между сроками (за 1-3 часа до срока); квадратными скобками обозначены град или гололедные отложения с указанием их диаметра в мм.
Облачность - указаны через наклонную черту общая и нижняя облачность в баллах и высота нижней границы облаков в метрах; квадратными скобками обозначены формы облаков: Ci - перистые, Cs - перисто-слоистые, Cc - перисто-кучевые, Ac - высококучевые, As - высокослоистые, Sc - слоисто-кучевые, Ns - слоисто-дождевые, Cu - кучевые, Cb - кучево-дождевые. Подробнее классификацию облаков см. в Атласе облаков (PDF).
T - Температура воздуха - температура, измеренная на высоте 2 м над землей.
Td - Температура точки росы - температура, при понижении до которой содержащийся в воздухе водяной пар достигнет насыщения.
f - Относительная влажность воздуха - влажноcть воздуха, измеренная на высоте 2 м над землей.
Te - Эффективная температура - температура, которую ощущает одетый по сезону человек в тени. Характеристика душности погоды. При расчете учитывается влияние влажности воздуха и скорости ветра на теплоощущения человека.
Tes - Эффективная температура на солнце - температура, которую ощущает человек, с поправкой на солнечный нагрев. Характеристика знойности погоды. Зависит от высоты солнца над горизонтом, облачности и скорости ветра. Ночью, в пасмурную погоду, а также при ветре 12 м/с и более поправка равна нулю.
P - Атмосферное давление - приведенное к уровню моря атмосферное давление.
Po - Атмосферное давление - измеренное на уровне метеостанции атмосферное давление.
Tmin - Минимальная температура - минимум температуры воздуха на высоте 2 м над землей.
Tmax - Максимальная температура - максимум температуры воздуха на высоте 2 м над землей.
R - Количество осадков - Количество выпавших осадков за период времени, мм. При наведении курсора мыши на число - период времени, за который выпало указанное количество осадков.
R24 - Количество осадков - Количество выпавших осадков за 24 часа, мм.
S - Снежный покров - Высота снежного покрова, см. При наведении курсора мыши на число - состояние снежного покрова и степень покрытия местности в баллах.